Flag for Canada Weather past 2 weeks in Trois-Rivieres, Quebec, Canada

Now
19 °F

Cold.


Feels Like: 11 °F
Forecast: 10 / 33 °F
Wind: 6 mph from Northwest

Location: Trois Rivieres

Current Time: Mar 28, 2015 at 11:23:51 PM

Latest Report: Mar 28, 2015 at 11:00 PM


Visibility: N/A

Pressure: 30.09 "Hg

Humidity: 56%

Dew point: 6 °F

Location of Trois-RivieresLocation

Historic Weather in Trois-Rivieres — Graph

°F

Trois-Rivieres temperature yesterday

Maximum temperature yesterday: 35 °F (at 4:00 PM)
Minimum temperature yesterday: 26 °F (at 11:00 PM)
Average temperature yesterday: 31 °F

Past Weeks' High & Low Weather Summary

 TemperatureHumidityPressure
High39 °F (Mar 26, 12:00 PM)100% (Mar 14, 7:00 PM)30.39 "Hg (Mar 14, 7:00 PM)
Low0 °F (Mar 22, 8:00 AM)25% (Mar 28, 5:00 PM)29.46 "Hg (Mar 17, 11:00 AM)
Average22 °F70%30.01 "Hg
* Reported Mar 13 10:00 PM — Mar 28 10:00 PM, Trois-Rivieres, Weather by CustomWeather, © 2015

Note: Actual official high and low records may vary slightly from our data, if they occured in-between our weather recording intervals... More about our weather records

Advertising

Trois-Rivieres weather history for previous 24 hours

 ConditionsComfort  
Time TempWeatherWind HumidityBarometerVisibility
10:00 PM
Sat, Mar 28
21 °FCold.3 mph51%30.07 "HgN/A
9:00 PM24 °FCold.5 mph33%30.05 "HgN/A
8:00 PM27 °FChilly.6 mph30%30.03 "HgN/A
7:00 PM31 °FChilly.9 mph26%30.00 "HgN/A
6:00 PM30 °FChilly.9 mph30%29.98 "HgN/A
5:00 PM29 °FChilly.10 mph25%29.97 "HgN/A
4:00 PM29 °FChilly.10 mph27%29.98 "HgN/A
3:00 PM27 °FChilly.12 mph28%29.99 "HgN/A
2:00 PM28 °FChilly.7 mph35%30.01 "HgN/A
1:00 PM24 °FCold.7 mph38%30.03 "HgN/A
12:00 PM22 °FCold.9 mph43%30.04 "HgN/A
11:00 AM19 °FCold.10 mph45%30.05 "HgN/A
10:00 AM16 °FCold.12 mph50%30.06 "HgN/A
9:00 AM14 °FCold.9 mph54%30.06 "HgN/A
8:00 AM15 °FCold.10 mph54%30.05 "HgN/A
7:00 AM14 °FCold.10 mph56%30.03 "HgN/A
6:00 AM15 °FCold.12 mph55%30.01 "HgN/A
5:00 AM16 °FCold.10 mph59%30.01 "HgN/A
4:00 AM17 °FCold.9 mph54%29.99 "HgN/A
3:00 AM18 °FCold.12 mph52%29.98 "HgN/A
2:00 AM19 °FCold.13 mph50%29.98 "HgN/A
1:00 AM21 °FCold.12 mph47%29.96 "HgN/A
12:00 AM24 °FCold.9 mph46%29.94 "HgN/A
11:00 PM
Fri, Mar 27
26 °FChilly.10 mph46%29.90 "HgN/A
Weather by CustomWeather, © 2015

See weather overviewHow to use our weather pages